• Processing (Info)

  • MPEC 2006-F39 : 2006 FJ9

    The following Minor Planet Electronic Circular may be linked-to from your own Web pages, but must not otherwise be redistributed electronically.

    A form allowing access to any MPEC is at the bottom of this page.


    Read MPEC 2006-F38 Read MPEC 2006-F40


    M.P.E.C. 2006-F39                                Issued 2006 Mar. 27, 18:37 UT
    
         The Minor Planet Electronic Circulars contain information on unusual
             minor planets and routine data on comets.  They are published
       on behalf of Commission 20 of the International Astronomical Union by the
              Minor Planet Center, Smithsonian Astrophysical Observatory,
                              Cambridge, MA 02138, U.S.A.
    
                      Supported in part by the Brinson Foundation
                      Supported in part by the TABASGO Foundation
                 Prepared using the Tamkin Foundation Computer Network
    
                                  MPC@CFA.HARVARD.EDU
              URL http://cfa-www.harvard.edu/iau/mpc.html  ISSN 1523-6714
    
                                       2006 FJ9
    
    Observations:
         K06F09J* C2006 03 24.29557 11 37 14.15 +05 22 18.2          19.4   EF039704
         K06F09J  C2006 03 24.30665 11 37 13.29 +05 22 27.4          19.4   EF039704
         K06F09J  C2006 03 24.31780 11 37 12.39 +05 22 38.9          19.6   EF039704
         K06F09J  C2006 03 24.32888 11 37 11.39 +05 22 48.8          19.6   EF039704
         K06F09J  C2006 03 24.87003 11 36 30.30 +05 31 20.2          19.1 R EF039J87
         K06F09J  C2006 03 24.87560 11 36 29.86 +05 31 25.6          19.5 R EF039J87
         K06F09J  C2006 03 24.88079 11 36 29.36 +05 31 31.2          19.9 R EF039J87
         K06F09J  C2006 03 24.94084 11 36 24.35 +05 32 28.0          18.9 R EF039176
         K06F09J  C2006 03 24.94239 11 36 24.23 +05 32 29.7          19.0 R EF039176
         K06F09J  C2006 03 24.94395 11 36 24.10 +05 32 31.1          19.0 R EF039176
         K06F09J  C2006 03 24.94551 11 36 23.97 +05 32 32.8          19.1 R EF039176
         K06F09J  C2006 03 25.20378 11 36 03.96 +05 36 38.1          19.2 R EF039734
         K06F09J  C2006 03 25.20820 11 36 03.60 +05 36 42.3          19.3 R EF039734
         K06F09J  C2006 03 25.21264 11 36 03.22 +05 36 46.4          19.4 R EF039734
         K06F09J  C2006 03 25.22569 11 36 02.48 +05 37 00.3          19.5 R EF039673
         K06F09J  C2006 03 25.23229 11 36 01.93 +05 37 06.5                 EF039673
         K06F09J  C2006 03 25.23843 11 36 01.42 +05 37 12.4                 EF039673
         K06F09J  C2006 03 25.24190 11 36 01.12 +05 37 15.8                 EF039673
         K06F09J  C2006 03 25.30985 11 35 55.35 +05 38 20.6          19.4 V EF039G96
         K06F09J  C2006 03 25.32057 11 35 54.45 +05 38 30.9          19.3 V EF039G96
         K06F09J  C2006 03 25.32591 11 35 54.02 +05 38 35.8          19.3 V EF039G96
         K06F09J  C2006 03 25.36740 11 35 50.60 +05 39 15.7          19.2 R EF039651
         K06F09J  C2006 03 25.36851 11 35 50.48 +05 39 16.3          19.3 R EF039651
         K06F09J  C2006 03 25.36962 11 35 50.39 +05 39 17.0          19.2 R EF039651
         K06F09J  C2006 03 25.76809 11 35 20.42 +05 45 31.7          18.6 R EF039A50
         K06F09J  C2006 03 25.76952 11 35 20.32 +05 45 33.1          18.9 R EF039A50
         K06F09J  C2006 03 25.77095 11 35 20.19 +05 45 34.9          18.9 R EF039A50
         K06F09J  C2006 03 25.77238 11 35 20.03 +05 45 36.1          19.1 R EF039A50
         K06F09J  C2006 03 25.77381 11 35 19.94 +05 45 37.2          19.1 R EF039A50
         K06F09J  C2006 03 25.77523 11 35 19.83 +05 45 38.8          18.5 R EF039A50
         K06F09J  C2006 03 26.18446 11 34 47.84 +05 52 09.5          19.5 R EF039734
         K06F09J  C2006 03 26.18887 11 34 47.41 +05 52 13.9          20.1 R EF039734
         K06F09J  C2006 03 26.19328 11 34 47.04 +05 52 18.9          19.8 R EF039734
         K06F09J  C2006 03 26.26234 11 34 41.55 +05 53 25.7          19.4 V EF039G96
         K06F09J  C2006 03 26.26896 11 34 41.01 +05 53 32.1          19.4 V EF039G96
         K06F09J  C2006 03 26.27560 11 34 40.44 +05 53 38.4          19.4 V EF039G96
         K06F09J  C2006 03 26.28229 11 34 39.90 +05 53 44.8          19.2 V EF039G96
         K06F09J  C2006 03 26.85770 11 33 55.56 +06 02 47.9          19.1 R EF039118
         K06F09J  C2006 03 26.86820 11 33 54.56 +06 02 57.4          19.3 R EF039118
    
    Observer details:
    118 Modra.  Observer L. Kornos.  0.6-m f/5.5 reflector + CCD.
    176 Observatori Astronomic de Consell.  Observers A. Lopez, R. Pacheco.
        0.41-m f/4 reflector + CCD.
    651 Grasslands Observatory, Tucson.  Observer J. E. McGaha.  0.62-m f/5.1
        Newtonian reflector + CCD.
    673 Table Mountain Observatory, Wrightwood.  Observer J. Young.  0.6-m f/16
        Cassegrain + CCD.
    704 Lincoln Laboratory ETS, New Mexico.  Observers M. Bezpalko, L. Manguso,
        D. Torres, R. Kracke, M. Blythe, H. Love.  Measurers J. Stuart, J. Kommers.
        1.0-m f/2.15 reflector + CCD.
    734 Farpoint Observatory.  Observer G. Hug.  Measurer K. Dobbs.  0.7-m
        reflector + CCD.
    A50 Andrushivka Astronomical Observatory.  Observers O. Gerashchenko,
        Y. Ivashchenko, D. Kyrylenko.  0.6-m reflector + CCD.
    G96 Mt. Lemmon Survey.  Observers E. J. Christensen, R. A. Kowalski.
        Measurers E. C. Beshore, E. J. Christensen, G. J. Garradd, A. R. Gibbs,
        A. D. Grauer, R. E. Hill, R. A. Kowalski, S. M. Larson, R. H. McNaught.
        1.5-m reflector + CCD.
    J87 La Canada.  Observer J. Lacruz.  0.30-m f/3.3 Schmidt-Cassegrain + CCD.
    
    Orbital elements:
    2006 FJ9                                                 Earth MOID = 0.1486 AU
    Epoch 2006 Mar. 26.0 TT = JDT 2453820.5                 MPC
    M 310.94980              (2000.0)            P               Q
    n   0.42517769     Peri.  101.47519     -0.03326638     +0.99930604
    a   1.7515495      Node   166.58439     -0.94282668     -0.02581432
    e   0.3464151      Incl.    4.14174     -0.33161906     -0.02685269
    P   2.32           H   19.4           G   0.15
    From 39 observations 2006 Mar. 24-26.
    
    Ephemeris:
    2006 FJ9                 a,e,i = 1.75, 0.35, 4                   q = 1.1448
    Date    TT    R. A. (2000) Decl.     Delta      r     Elong.  Phase     V
    2006 03 26    11 35.03   +05 49.4    0.530    1.518   166.6     8.8    19.5
    2006 04 05    11 22.59   +08 23.0    0.508    1.470   152.8    18.1    19.7
    2006 04 15    11 12.96   +10 31.6    0.500    1.423   140.0    26.9    19.9
    2006 04 25    11 08.07   +12 00.4    0.504    1.377   128.6    34.8    20.0
    2006 05 05    11 08.91   +12 43.4    0.513    1.333   118.8    41.5    20.2
    2006 05 15    11 15.51   +12 41.9    0.523    1.292   110.7    47.1    20.3
    2006 05 25    11 27.35   +11 59.8    0.533    1.254   104.0    51.6    20.4
    2006 06 04    11 43.90   +10 40.1    0.541    1.220    98.8    55.2    20.5
    2006 06 14    12 04.58   +08 46.0    0.545    1.192    94.7    58.1    20.6
    2006 06 24    12 28.95   +06 20.2    0.547    1.169    91.8    60.3    20.6
    2006 07 04    12 56.79   +03 24.9    0.547    1.154    89.9    61.8    20.6
    2006 07 14    13 27.93   +00 04.4    0.548    1.146    89.0    62.5    20.6
    2006 07 24    14 02.23   -03 34.8    0.551    1.146    88.8    62.4    20.6
    2006 08 03    14 39.62   -07 23.4    0.558    1.153    89.4    61.6    20.6
    2006 08 13    15 19.73   -11 07.3    0.573    1.168    90.4    60.2    20.7
    2006 08 23    16 01.95   -14 31.0    0.598    1.190    91.7    58.2    20.8
    2006 09 02    16 45.41   -17 19.8    0.634    1.218    92.8    55.8    20.9
    2006 09 12    17 28.95   -19 22.9    0.682    1.251    93.6    53.4    21.0
    2006 09 22    18 11.42   -20 36.8    0.743    1.289    93.9    51.0    21.2
    2006 10 02    18 51.97   -21 03.4    0.816    1.330    93.5    48.7    21.4
    2006 10 12    19 30.01   -20 49.0    0.901    1.374    92.5    46.5    21.6
    2006 10 22    20 05.34   -20 01.3    0.997    1.420    90.9    44.5    21.9
    
    Brian G. Marsden             (C) Copyright 2006 MPC           M.P.E.C. 2006-F39
    

    Read MPEC 2006-F38 Read MPEC 2006-F40


    MPEC number:

    Enter an MPEC number in one of the following forms:

    • 1997-B01 (the full form)
    • J97B01 (the packed version of the full form)
    • B01 (the abbreviated form)